Volver al catálogo

THORAD AGENA D DEB

ActivoPO
NORAD 4950·DEBRIS·🇺🇸 United States

Lanzado Apr 8, 1970 desde Vandenberg Space Force Base

Loading…

Próximos Pases (próximas 24 horas)

TLE

ActualizadoSource: Space-Track

Época: Sep 14, 2026, 04:07 UTC

1 04950U 70025GL  26257.17165472  .00000194  00000-0  59304-3 0  9995
2 04950  99.8171 142.7115 0219689 174.5842 340.3040 13.10228406695159

Sigue THORAD AGENA D DEB en tiempo real con AllMySat

Download on the App Store